Location: Cronhütte
(48.9135°N, 9.6869°E)
Time: 17:00:33
(UTC+00:00)

FORMOSAT 3E - Pass Details

Date: 04 May 2025
Orbit: 742 x 834 km, 72.0° (Epoch: 13 May)

Event Time Altitude Azimuth Distance (km) Brightness Sun altitude
Rises 23:15:31 0° 329° (NNW) 3,200 12.2 -24.8°
Reaches altitude 10° 23:17:55 10° 325° (NW) 2,279 11.1 -24.8°
Enters shadow 23:22:53 50° 251° (WSW) 960 8.3 -24.8°
